| time (UTC) | temp F | wind direction | speed MPH | gust MPH | rain 1hr in | rain 24hr in | rain mn in | humidity % | barometer mb |
| 20260906110008 | 80 | 186 | 0.0 | 0.0 | 0.00 | 0.01 | 0.00 | 93 | 1010.0 |
| 20260906104509 | 80 | 186 | 0.0 | 0.0 | 0.00 | 0.01 | 0.00 | 93 | 1010.0 |
| 20260906103005 | 80 | 187 | 0.0 | 0.0 | 0.00 | 0.01 | 0.00 | 93 | 1009.8 |
| 20260906101504 | 80 | 186 | 0.0 | 0.0 | 0.00 | 0.01 | 0.00 | 93 | 1009.6 |
| 20260906100002 | 80 | 186 | 0.0 | 0.0 | 0.00 | 0.01 | 0.00 | 92 | 1009.6 |
| 20260906094502 | 80 | 186 | 0.0 | 0.0 | 0.00 | 0.01 | 0.00 | 92 | 1009.7 |
| 20260906093001 | 80 | 186 | 0.0 | 0.0 | 0.00 | 0.01 | 0.00 | 91 | 1009.5 |
| 20260906091606 | 80 | 186 | 0.0 | 0.0 | 0.00 | 0.01 | 0.00 | 91 | 1009.4 |
| 20260906090104 | 81 | 186 | 0.0 | 0.0 | 0.00 | 0.01 | 0.00 | 91 | 1009.4 |
| 20260906084558 | 81 | 187 | 0.0 | 0.0 | 0.00 | 0.01 | 0.00 | 91 | 1009.4 |
| 20260906083057 | 81 | 186 | 0.0 | 0.0 | 0.00 | 0.01 | 0.00 | 90 | 1009.3 |
| 20260906081559 | 81 | 186 | 0.0 | 0.0 | 0.00 | 0.01 | 0.00 | 90 | 1009.4 |
| 20260906080101 | 81 | 186 | 0.0 | 0.0 | 0.00 | 0.01 | 0.00 | 90 | 1009.4 |
| 20260906074554 | 81 | 186 | 0.0 | 0.0 | 0.00 | 0.01 | 0.00 | 89 | 1009.5 |
| 20260906073050 | 82 | 186 | 0.0 | 0.0 | 0.00 | 0.01 | 0.00 | 89 | 1009.8 |
| 20260906071548 | 82 | 186 | 0.0 | 0.0 | 0.00 | 0.01 | 0.00 | 89 | 1009.8 |
| 20260906070048 | 82 | 186 | 0.0 | 0.0 | 0.00 | 0.02 | 0.00 | 88 | 1009.8 |
| 20260906064547 | 82 | 186 | 0.0 | 0.0 | 0.00 | 0.02 | 0.00 | 88 | 1010.0 |
| 20260906063149 | 82 | 186 | 0.0 | 0.0 | 0.00 | 0.02 | 0.00 | 88 | 1009.9 |
| 20260906061546 | 82 | 186 | 0.0 | 0.0 | 0.00 | 0.02 | 0.00 | 87 | 1009.9 |
| 20260906054544 | 82 | 186 | 0.0 | 0.0 | 0.00 | 0.02 | 0.00 | 86 | 1010.0 |
| 20260906053042 | 82 | 78 | 0.0 | 0.0 | 0.00 | 0.02 | 0.00 | 87 | 1009.9 |
| 20260906051540 | 82 | 71 | 0.0 | 0.0 | 0.00 | 0.02 | 0.00 | 87 | 1010.0 |
| 20260906050040 | 82 | 71 | 0.0 | 0.0 | 0.00 | 0.02 | 0.02 | 87 | 1010.1 |
| 20260906044539 | 82 | 71 | 0.0 | 0.0 | 0.00 | 0.02 | 0.02 | 87 | 1009.9 |
| 20260906043041 | 82 | 71 | 0.0 | 0.0 | 0.00 | 0.02 | 0.02 | 87 | 1010.0 |
| 20260906041538 | 82 | 71 | 0.0 | 0.0 | 0.00 | 0.02 | 0.02 | 87 | 1010.0 |
| 20260906040040 | 82 | 71 | 0.0 | 0.0 | 0.00 | 0.02 | 0.02 | 86 | 1010.1 |
| 20260906034540 | 82 | 71 | 0.0 | 0.0 | 0.00 | 0.02 | 0.02 | 87 | 1010.1 |
| 20260906033037 | 83 | 71 | 0.0 | 0.0 | 0.00 | 0.02 | 0.02 | 87 | 1010.0 |
| 20260906031604 | 83 | 71 | 0.0 | 0.0 | 0.00 | 0.02 | 0.02 | 86 | 1010.1 |
| 20260906030038 | 83 | 71 | 0.0 | 0.0 | 0.00 | 0.02 | 0.02 | 86 | 1010.0 |
| 20260906024541 | 83 | 71 | 0.0 | 0.0 | 0.00 | 0.02 | 0.02 | 85 | 1009.8 |
| 20260906023043 | 83 | 71 | 0.0 | 12.0 | 0.00 | 0.02 | 0.02 | 85 | 1009.4 |
| 20260906021533 | 84 | 71 | 5.0 | 28.0 | 0.00 | 0.02 | 0.02 | 85 | 1009.3 |
| 20260906020042 | 84 | 44 | 2.0 | 49.0 | 0.00 | 0.07 | 0.02 | 84 | 1009.1 |
| 20260906014533 | 84 | 102 | 1.0 | 23.0 | 0.00 | 0.07 | 0.02 | 83 | 1008.9 |
| 20260906013032 | 85 | 56 | 7.0 | 23.0 | 0.00 | 0.07 | 0.02 | 82 | 1008.8 |
| 20260906011531 | 85 | 47 | 4.0 | 45.0 | 0.00 | 0.07 | 0.02 | 81 | 1008.8 |
| 20260906010033 | 86 | 74 | 0.0 | 0.0 | 0.00 | 0.25 | 0.02 | 79 | 1008.7 |
| 20260906004531 | 87 | 74 | 0.0 | 0.0 | 0.00 | 0.25 | 0.02 | 76 | 1008.9 |
| 20260906003030 | 87 | 74 | 0.0 | 15.0 | 0.00 | 0.25 | 0.02 | 74 | 1009.0 |
| 20260906001538 | 87 | 76 | 0.0 | 20.0 | 0.00 | 0.25 | 0.02 | 73 | 1009.0 |
| 20260906000029 | 87 | 62 | 0.0 | 0.0 | 0.00 | 0.25 | 0.02 | 73 | 1009.1 |
| 20260905234531 | 87 | 90 | 0.0 | 0.0 | 0.00 | 0.25 | 0.02 | 74 | 1009.2 |
| 20260905233028 | 88 | 90 | 0.0 | 0.0 | 0.00 | 0.25 | 0.02 | 74 | 1009.3 |
| 20260905231534 | 88 | 90 | 0.0 | 0.0 | 0.00 | 0.25 | 0.02 | 74 | 1009.3 |
| 20260905230027 | 87 | 90 | 0.0 | 0.0 | 0.00 | 0.25 | 0.02 | 74 | 1009.2 |
| 20260905224527 | 87 | 93 | 0.0 | 0.0 | 0.00 | 0.25 | 0.02 | 75 | 1008.9 |
| 20260905223026 | 86 | 111 | 0.0 | 0.0 | 0.00 | 0.25 | 0.02 | 75 | 1008.8 |
| 20260905221525 | 86 | 174 | 0.0 | 11.0 | 0.00 | 0.25 | 0.02 | 76 | 1008.8 |
| 20260905220025 | 86 | 198 | 1.0 | 15.0 | 0.00 | 0.25 | 0.02 | 77 | 1008.9 |
| 20260905214524 | 85 | 200 | 0.0 | 41.0 | 0.00 | 0.25 | 0.02 | 77 | 1008.7 |
| 20260905213024 | 86 | 193 | 0.0 | 21.0 | 0.00 | 0.25 | 0.02 | 77 | 1008.8 |
| 20260905211524 | 86 | 130 | 11.0 | 40.0 | 0.01 | 0.25 | 0.02 | 78 | 1009.2 |
| 20260905210022 | 86 | 101 | 0.0 | 0.0 | 0.01 | 0.25 | 0.02 | 78 | 1009.4 |
| 20260905204524 | 85 | 107 | 0.0 | 6.0 | 0.01 | 0.25 | 0.02 | 80 | 1009.0 |
| 20260905203021 | 86 | 127 | 9.0 | 44.0 | 0.01 | 0.25 | 0.02 | 78 | 1009.0 |
| 20260905201521 | 92 | 76 | 3.0 | 27.0 | 0.00 | 0.24 | 0.01 | 66 | 1009.3 |
| 20260905200019 | 93 | 51 | 22.0 | 45.0 | 0.00 | 0.24 | 0.01 | 64 | 1009.4 |
| 20260905194517 | 94 | 121 | 0.0 | 0.0 | 0.00 | 0.24 | 0.01 | 61 | 1009.5 |
| 20260905193016 | 95 | 201 | 0.0 | 0.0 | 0.00 | 0.24 | 0.01 | 55 | 1009.6 |
| 20260905191513 | 97 | 119 | 1.0 | 23.0 | 0.00 | 0.24 | 0.01 | 54 | 1009.8 |
| 20260905190026 | 98 | 36 | 0.0 | 0.0 | 0.00 | 0.24 | 0.01 | 55 | 1010.0 |
| 20260905184512 | 96 | 46 | 0.0 | 11.0 | 0.00 | 0.24 | 0.01 | 57 | 1010.1 |
| 20260905183015 | 96 | 355 | 5.0 | 24.0 | 0.00 | 0.24 | 0.01 | 59 | 1010.3 |
| 20260905181512 | 97 | 28 | 11.0 | 29.0 | 0.00 | 0.24 | 0.01 | 57 | 1010.5 |
| 20260905180008 | 95 | 221 | 0.0 | 21.0 | 0.00 | 0.26 | 0.01 | 57 | 1010.9 |
| 20260905174505 | 94 | 171 | 4.0 | 21.0 | 0.00 | 0.26 | 0.01 | 60 | 1011.3 |
| 20260905173002 | 92 | 294 | 4.0 | 33.0 | 0.00 | 0.26 | 0.01 | 65 | 1011.5 |
| 20260905171500 | 91 | 294 | 13.0 | 28.0 | 0.00 | 0.26 | 0.01 | 64 | 1011.6 |
| 20260905170104 | 93 | 304 | 0.0 | 28.0 | 0.00 | 0.26 | 0.01 | 65 | 1011.7 |
| 20260905164610 | 94 | 304 | 14.0 | 39.0 | 0.00 | 0.26 | 0.01 | 63 | 1011.8 |
| 20260905163056 | 93 | 294 | 8.0 | 39.0 | 0.00 | 0.26 | 0.01 | 68 | 1011.8 |
| 20260905161554 | 92 | 134 | 0.0 | 0.0 | 0.00 | 0.26 | 0.01 | 69 | 1011.9 |
| 20260905160056 | 91 | 178 | 0.0 | 0.0 | 0.00 | 0.26 | 0.01 | 70 | 1011.8 |
| 20260905154550 | 89 | 178 | 0.0 | 0.0 | 0.00 | 0.26 | 0.01 | 74 | 1011.9 |
| 20260905153043 | 87 | 178 | 0.0 | 0.0 | 0.00 | 0.26 | 0.01 | 79 | 1011.9 |
| 20260905151542 | 88 | 178 | 0.0 | 0.0 | 0.00 | 0.26 | 0.01 | 78 | 1011.9 |
| 20260905150042 | 88 | 207 | 0.0 | 0.0 | 0.00 | 0.26 | 0.01 | 82 | 1011.8 |
| 20260905144536 | 87 | 192 | 0.0 | 0.0 | 0.00 | 0.26 | 0.01 | 86 | 1011.9 |
| 20260905143033 | 86 | 192 | 0.0 | 0.0 | 0.00 | 0.26 | 0.01 | 86 | 1011.9 |
| 20260905141528 | 85 | 192 | 0.0 | 0.0 | 0.00 | 0.26 | 0.01 | 89 | 1011.8 |
| 20260905140024 | 83 | 192 | 0.0 | 0.0 | 0.00 | 0.27 | 0.01 | 94 | 1011.7 |
| 20260905134521 | 82 | 192 | 0.0 | 0.0 | 0.00 | 0.27 | 0.01 | 96 | 1011.7 |
| 20260905133024 | 81 | 192 | 0.0 | 0.0 | 0.00 | 0.27 | 0.01 | 98 | 1011.5 |
| 20260905131515 | 80 | 192 | 0.0 | 0.0 | 0.00 | 0.27 | 0.01 | 98 | 1011.6 |
| 20260905130012 | 79 | 192 | 0.0 | 0.0 | 0.00 | 0.27 | 0.01 | 98 | 1011.5 |
| 20260905124510 | 78 | 192 | 0.0 | 0.0 | 0.00 | 0.27 | 0.01 | 98 | 1011.4 |
| 20260905123008 | 77 | 192 | 0.0 | 0.0 | 0.00 | 0.27 | 0.01 | 98 | 1011.1 |
| 20260905121508 | 77 | 192 | 0.0 | 0.0 | 0.00 | 0.27 | 0.01 | 98 | 1011.0 |
| 20260905120016 | 77 | 192 | 0.0 | 0.0 | 0.00 | 0.27 | 0.01 | 97 | 1010.9 |
| 20260905114504 | 77 | 192 | 0.0 | 0.0 | 0.00 | 0.27 | 0.01 | 98 | 1010.7 |
| 20260905113004 | 77 | 192 | 0.0 | 0.0 | 0.00 | 0.27 | 0.01 | 98 | 1010.5 |
| 20260905111503 | 77 | 192 | 0.0 | 0.0 | 0.00 | 0.27 | 0.01 | 97 | 1010.4 |